Tracking 17739 objects as of 28-June-2016
HD Live streaming from Space Station
objects crossing your sky now

BONUM 1

Track BONUM 1 now!
BONUM 1 is classified as:


NORAD ID: 25546
Int'l Code: 1998-068A
Perigee: 36,146.7 km
Apogee: 36,161.5 km
Inclination: 3.5 °
Period: 1,454.5 minutes
Semi major axis: 42525 km
RCS: 0.003 m2 (small)
Launch date: November 22, 1998
Source: Commonwealth of Independent States (former USSR) (CIS)
Launch site: AIR FORCE EASTERN TEST RANGE (AFETR)

Television broadcasting; 8 Ku-band, Siberia or Europe, selected.
Your satellite tracking list
Your tracking list is empty





NASA's NSSDC Master Catalog

Two Line Element Set (TLE):
1 25546U 98068A   16178.30272008  .00000051  00000-0  00000+0 0  9993
2 25546   3.5384  69.1058 0001736 277.3270  82.4031  0.99036665 64452
Source of the keplerian elements: AFSPC

N2YO: 848